Preview of NWS' New Version of Forecast
This preview is not operational and should not be used for support decisions.

Regional Weather Roundup (RWR)

Issued by National Weather Service (NWS)

                            
000
ASUS43 KBIS 260510
RWRND 

NORTH DAKOTA REGIONAL WEATHER ROUNDUP
NATIONAL WEATHER SERVICE BISMARCK ND
1200 AM CDT FRI APR 26 2019

NOTE: "FAIR" INDICATES FEW OR NO CLOUDS BELOW 12,000 FEET WITH NO
SIGNIFICANT WEATHER AND/OR OBSTRUCTIONS TO VISIBILITY.


NDZ001>003-009>011-017-260600-
NORTHWEST NORTH DAKOTA
  
CITY           SKY/WX    TMP DP  RH WIND       PRES   REMARKS
WILLISTON      CLEAR     36  13  38 E3        30.17S                  
MINOT          CLEAR     40  22  48 W9        30.13S                  
MINOT AFB      CLEAR     29  19  64 W7        30.12R                  
$$
 
NDZ018>021-031>035-040>046-260600-
SOUTHWEST NORTH DAKOTA
  
CITY           SKY/WX    TMP DP  RH WIND       PRES   REMARKS
BISMARCK       CLEAR     41  18  39 SW5       30.16S                  
DICKINSON      CLEAR     35  11  36 W7        30.16F                  
GARRISON         N/A     29  17  61 NW7       30.14S                  
HETTINGER ARPT CLEAR     28  16  60 W3        30.20S                  
$$
 
NDZ004>008-012>016-024-026-027-054-260600-
NORTHEAST NORTH DAKOTA
  
CITY           SKY/WX    TMP DP  RH WIND       PRES   REMARKS
GRAND FORKS    CLEAR     34  29  82 W9        30.06S                  
GRND FRKS AFB  CLEAR     37  30  75 NW2       30.09R                  
DEVILS LAKE    CLEAR     37  29  72 NW6       30.10R                  
$$
 
NDZ022-023-025-028>030-036>039-047>053-260600-
SOUTHEAST NORTH DAKOTA
  
CITY           SKY/WX    TMP DP  RH WIND       PRES   REMARKS
FARGO          CLEAR     43  34  70 N14       30.07R                  
JAMESTOWN      CLEAR     39  24  55 W5        30.09F                  
$$